,,PA_Meas_PMT16A,,PR_Meas_QMR101_102,,RH_Meas_QMH101,,SR_Meas_QMS101,,TA_Meas_QMH101,,GenWind,,GenWind,
time,status,PA,status,PR,status,RH,status,SR,status,TA,status,DirAvg,status,SpdAvg,
2013-07-11, 00:00:05,VALID,917.498,VALID,0,VALID,96.9012,VALID,0,VALID,20.0553,VALID,126,VALID,0,
2013-07-11, 00:01:05,VALID,917.459,VALID,0,VALID,96.8936,VALID,0,VALID,20.0148,VALID,126,VALID,0,
2013-07-11, 00:02:05,VALID,917.454,VALID,0,VALID,96.9089,VALID,0,VALID,20.0343,VALID,122,VALID,0,
2013-07-11, 00:03:05,VALID,917.452,VALID,0,VALID,96.9089,VALID,0,VALID,20.0148,VALID,122,VALID,0,
2013-07-11, 00:04:05,VALID,917.446,VALID,0,VALID,96.9241,VALID,0,VALID,20.0148,VALID,136,VALID,0,
2013-07-11, 00:05:05,VALID,917.411,VALID,0,VALID,96.9241,VALID,0,VALID,19.9938,VALID,126,VALID,0,
2013-07-11, 00:06:05,VALID,917.409,VALID,0,VALID,96.9241,VALID,0,VALID,20.0148,VALID,125,VALID,0,
2013-07-11, 00:07:05,VALID,917.387,VALID,0,VALID,96.9317,VALID,0,VALID,19.9953,VALID,125,VALID,0,
2013-07-11, 00:08:05,VALID,917.384,VALID,0,VALID,96.8936,VALID,0,VALID,19.9758,VALID,130,VALID,0,
2013-07-11, 00:09:05,VALID,917.384,VALID,0,VALID,96.9165,VALID,0,VALID,19.9548,VALID,127,VALID,0,
2013-07-11, 00:10:05,VALID,917.315,VALID,0,VALID,96.9394,VALID,0,VALID,19.9563,VALID,135,VALID,0,
2013-07-11, 00:11:05,VALID,917.315,VALID,0,VALID,96.9241,VALID,0,VALID,19.9953,VALID,138,VALID,0,
2013-07-11, 00:12:05,VALID,917.311,VALID,0,VALID,96.9165,VALID,0,VALID,19.9953,VALID,153,VALID,0,
2013-07-11, 00:13:05,VALID,917.279,VALID,0,VALID,96.9394,VALID,0,VALID,20.0148,VALID,153,VALID,0,
2013-07-11, 00:14:05,VALID,917.287,VALID,0,VALID,96.9241,VALID,0,VALID,20.0343,VALID,169,VALID,0,
2013-07-11, 00:15:05,VALID,917.272,VALID,0,VALID,96.9317,VALID,0,VALID,20.0343,VALID,173,VALID,0,
2013-07-11, 00:16:05,VALID,917.28,VALID,0,VALID,96.9241,VALID,0,VALID,20.0328,VALID,186,VALID,0,
2013-07-11, 00:17:05,VALID,917.218,VALID,0,VALID,96.947,VALID,0,VALID,20.0343,VALID,142,VALID,0,
2013-07-11, 00:18:05,VALID,917.223,VALID,0,VALID,96.9317,VALID,0,VALID,20.0343,VALID,164,VALID,0,
2013-07-11, 00:19:05,VALID,917.208,VALID,0,VALID,96.947,VALID,0,VALID,20.0148,VALID,161,VALID,0,
2013-07-11, 00:20:05,VALID,917.198,VALID,0,VALID,96.9394,VALID,0,VALID,20.0148,VALID,174,VALID,0,
2013-07-11, 00:21:05,VALID,917.185,VALID,0,VALID,96.947,VALID,0,VALID,19.9953,VALID,177,VALID,0,
2013-07-11, 00:22:05,VALID,917.186,VALID,0,VALID,96.9622,VALID,0,VALID,19.9758,VALID,187,VALID,0,
2013-07-11, 00:23:05,VALID,917.204,VALID,0,VALID,96.947,VALID,0,VALID,19.9758,VALID,150,VALID,0,
2013-07-11, 00:24:05,VALID,917.18,VALID,0,VALID,96.9622,VALID,0,VALID,19.9548,VALID,172,VALID,0,
2013-07-11, 00:25:05,VALID,917.189,VALID,0,VALID,96.9622,VALID,0,VALID,19.9563,VALID,169,VALID,0,
2013-07-11, 00:26:04,VALID,917.213,VALID,0,VALID,96.9546,VALID,0,VALID,19.9368,VALID,180,VALID,0,
2013-07-11, 00:27:04,VALID,917.206,VALID,0,VALID,96.9546,VALID,0,VALID,19.9563,VALID,181,VALID,0,
2013-07-11, 00:28:04,VALID,917.169,VALID,0,VALID,96.9622,VALID,0,VALID,19.9563,VALID,175,VALID,0,
2013-07-11, 00:29:04,VALID,917.164,VALID,0,VALID,96.9622,VALID,0,VALID,19.9563,VALID,187,VALID,0,
2013-07-11, 00:30:04,VALID,917.182,VALID,0,VALID,96.9698,VALID,0,VALID,19.9353,VALID,202,VALID,0,
2013-07-11, 00:31:04,VALID,917.171,VALID,0,VALID,96.9927,VALID,0,VALID,19.9563,VALID,202,VALID,0,
2013-07-11, 00:32:04,VALID,917.158,VALID,0,VALID,96.9927,VALID,0,VALID,19.9368,VALID,199,VALID,0,
2013-07-11, 00:33:04,VALID,917.165,VALID,0,VALID,96.9775,VALID,0,VALID,19.9368,VALID,199,VALID,0,
2013-07-11, 00:34:04,VALID,917.167,VALID,0,VALID,96.9927,VALID,0,VALID,19.9368,VALID,199,VALID,0,
2013-07-11, 00:35:04,VALID,917.142,VALID,0,VALID,96.9851,VALID,0,VALID,19.9368,VALID,199,VALID,0,
2013-07-11, 00:36:04,VALID,917.137,VALID,0,VALID,96.9775,VALID,0,VALID,19.8963,VALID,200,VALID,0,
2013-07-11, 00:37:04,VALID,917.163,VALID,0,VALID,96.9775,VALID,0,VALID,19.8768,VALID,198,VALID,0,
2013-07-11, 00:38:04,VALID,917.14,VALID,0,VALID,96.9775,VALID,0,VALID,19.8783,VALID,198,VALID,0,
2013-07-11, 00:39:04,VALID,917.141,VALID,0,VALID,96.9775,VALID,0,VALID,19.8588,VALID,198,VALID,0,
2013-07-11, 00:40:04,VALID,917.108,VALID,0,VALID,96.9698,VALID,0,VALID,19.8393,VALID,153,VALID,0,
2013-07-11, 00:41:04,VALID,917.1,VALID,0,VALID,96.9775,VALID,0,VALID,19.8393,VALID,112,VALID,0,
2013-07-11, 00:42:04,VALID,917.039,VALID,0,VALID,96.9698,VALID,0.107441,VALID,19.8003,VALID,112,VALID,0,
2013-07-11, 00:43:04,VALID,917.001,VALID,0,VALID,96.9698,VALID,0.107441,VALID,19.7808,VALID,119,VALID,0,
2013-07-11, 00:44:04,VALID,916.981,VALID,0,VALID,96.9775,VALID,0,VALID,19.7808,VALID,98,VALID,0,
2013-07-11, 00:45:04,VALID,916.977,VALID,0,VALID,96.9775,VALID,0,VALID,19.7808,VALID,110,VALID,0,
2013-07-11, 00:46:04,VALID,916.968,VALID,0,VALID,96.9851,VALID,0,VALID,19.7613,VALID,112,VALID,0,
2013-07-11, 00:47:04,VALID,916.945,VALID,0,VALID,96.9622,VALID,0,VALID,19.7808,VALID,113,VALID,0,
2013-07-11, 00:48:04,VALID,916.955,VALID,0,VALID,96.9851,VALID,0,VALID,19.7613,VALID,129,VALID,0,
2013-07-11, 00:49:04,VALID,916.949,VALID,0,VALID,96.9851,VALID,0.107441,VALID,19.7403,VALID,129,VALID,0,
2013-07-11, 00:50:04,VALID,916.94,VALID,0,VALID,96.9775,VALID,0,VALID,19.7418,VALID,128,VALID,0,
2013-07-11, 00:51:04,VALID,916.941,VALID,0,VALID,96.9546,VALID,0.107441,VALID,19.7403,VALID,122,VALID,0,
2013-07-11, 00:52:04,VALID,916.931,VALID,0,VALID,96.9851,VALID,0,VALID,19.7418,VALID,137,VALID,0,
2013-07-11, 00:53:04,VALID,916.931,VALID,0,VALID,96.9927,VALID,0,VALID,19.7418,VALID,93,VALID,0,
2013-07-11, 00:54:04,VALID,916.924,VALID,0,VALID,96.9698,VALID,0,VALID,19.7808,VALID,94,VALID,0,
2013-07-11, 00:55:04,VALID,916.892,VALID,0,VALID,96.9698,VALID,0,VALID,19.7808,VALID,138,VALID,0,
2013-07-11, 00:56:04,VALID,916.877,VALID,0,VALID,96.9698,VALID,0,VALID,19.7598,VALID,164,VALID,0,
2013-07-11, 00:57:04,VALID,916.837,VALID,0,VALID,96.9622,VALID,0,VALID,19.7613,VALID,166,VALID,0,
2013-07-11, 00:58:04,VALID,916.858,VALID,0,VALID,96.9622,VALID,0,VALID,19.7613,VALID,166,VALID,0,
2013-07-11, 00:59:04,VALID,916.879,VALID,0,VALID,96.9698,VALID,0,VALID,19.7613,VALID,170,VALID,0,
2013-07-11, 01:00:04,VALID,916.867,VALID,0,VALID,96.9698,VALID,0,VALID,19.7808,VALID,177,VALID,0,
2013-07-11, 01:01:04,VALID,916.894,VALID,0,VALID,97.0003,VALID,0,VALID,19.7808,VALID,177,VALID,0,
2013-07-11, 01:02:04,VALID,916.881,VALID,0,VALID,96.9775,VALID,0,VALID,19.7613,VALID,177,VALID,0,
2013-07-11, 01:03:04,VALID,916.872,VALID,0,VALID,96.9775,VALID,0.107441,VALID,19.7418,VALID,166,VALID,0,
2013-07-11, 01:04:04,VALID,916.867,VALID,0,VALID,96.9775,VALID,0.107441,VALID,19.7418,VALID,166,VALID,0,
2013-07-11, 01:05:04,VALID,916.853,VALID,0,VALID,96.9775,VALID,0,VALID,19.7613,VALID,166,VALID,0,
2013-07-11, 01:06:04,VALID,916.854,VALID,0,VALID,96.9775,VALID,0,VALID,19.7208,VALID,120,VALID,0,
2013-07-11, 01:07:04,VALID,916.861,VALID,0,VALID,96.9927,VALID,0,VALID,19.7418,VALID,137,VALID,0,
2013-07-11, 01:08:04,VALID,916.863,VALID,0,VALID,96.9851,VALID,0,VALID,19.7028,VALID,166,VALID,0,
2013-07-11, 01:09:04,VALID,916.858,VALID,0,VALID,96.9698,VALID,0,VALID,19.7028,VALID,164,VALID,0,
2013-07-11, 01:10:04,VALID,916.885,VALID,0,VALID,96.9622,VALID,0.107441,VALID,19.7028,VALID,141,VALID,0,
2013-07-11, 01:11:04,VALID,916.848,VALID,0,VALID,96.9546,VALID,0.107441,VALID,19.6833,VALID,149,VALID,0,
2013-07-11, 01:12:04,VALID,916.821,VALID,0,VALID,96.9546,VALID,0,VALID,19.6638,VALID,159,VALID,0,
2013-07-11, 01:13:04,VALID,916.82,VALID,0,VALID,96.9698,VALID,0,VALID,19.6248,VALID,125,VALID,0,
2013-07-11, 01:14:04,VALID,916.799,VALID,0,VALID,96.9622,VALID,0,VALID,19.6053,VALID,126,VALID,0,
2013-07-11, 01:15:04,VALID,916.774,VALID,0,VALID,96.9394,VALID,0,VALID,19.5858,VALID,150,VALID,0,
2013-07-11, 01:16:04,VALID,916.738,VALID,0,VALID,96.9394,VALID,0,VALID,19.5858,VALID,133,VALID,0,
2013-07-11, 01:17:04,VALID,916.75,VALID,0,VALID,96.9546,VALID,0,VALID,19.5468,VALID,173,VALID,0,
2013-07-11, 01:18:04,VALID,916.755,VALID,0,VALID,96.9394,VALID,0,VALID,19.5468,VALID,157,VALID,0,
2013-07-11, 01:19:04,VALID,916.727,VALID,0,VALID,96.947,VALID,0,VALID,19.5273,VALID,155,VALID,0,
2013-07-11, 01:20:04,VALID,916.75,VALID,0,VALID,96.9546,VALID,0,VALID,19.5273,VALID,159,VALID,0,
2013-07-11, 01:21:04,VALID,916.751,VALID,0,VALID,96.947,VALID,0,VALID,19.5078,VALID,159,VALID,0,
2013-07-11, 01:22:04,VALID,916.719,VALID,0,VALID,96.9241,VALID,0,VALID,19.5078,VALID,134,VALID,0,
2013-07-11, 01:23:04,VALID,916.688,VALID,0,VALID,96.9241,VALID,0.107441,VALID,19.4868,VALID,156,VALID,0,
2013-07-11, 01:24:04,VALID,916.703,VALID,0,VALID,96.9317,VALID,0,VALID,19.4883,VALID,137,VALID,0,
2013-07-11, 01:25:04,VALID,916.69,VALID,0,VALID,96.9241,VALID,0,VALID,19.4883,VALID,137,VALID,0,
2013-07-11, 01:26:04,VALID,916.691,VALID,0,VALID,96.9241,VALID,0,VALID,19.5078,VALID,139,VALID,0,
2013-07-11, 01:27:04,VALID,916.69,VALID,0,VALID,96.8936,VALID,0,VALID,19.5078,VALID,152,VALID,0,
2013-07-11, 01:28:04,VALID,916.691,VALID,0,VALID,96.9089,VALID,0,VALID,19.4883,VALID,176,VALID,0,
2013-07-11, 01:29:04,VALID,916.673,VALID,0,VALID,96.9241,VALID,0,VALID,19.5078,VALID,135,VALID,0,
2013-07-11, 01:30:04,VALID,916.676,VALID,0,VALID,96.9089,VALID,0,VALID,19.5078,VALID,133,VALID,0,
2013-07-11, 01:31:04,VALID,916.622,VALID,0,VALID,96.9089,VALID,0,VALID,19.4883,VALID,131,VALID,0,
2013-07-11, 01:32:04,VALID,916.619,VALID,0,VALID,96.9012,VALID,0,VALID,19.4883,VALID,136,VALID,0,
2013-07-11, 01:33:04,VALID,916.597,VALID,0,VALID,96.9089,VALID,0,VALID,19.4883,VALID,143,VALID,0,
2013-07-11, 01:34:04,VALID,916.593,VALID,0,VALID,96.9012,VALID,0,VALID,19.4688,VALID,144,VALID,0,
2013-07-11, 01:35:04,VALID,916.591,VALID,0,VALID,96.9165,VALID,0,VALID,19.4688,VALID,139,VALID,0,
2013-07-11, 01:36:04,VALID,916.607,VALID,0,VALID,96.9165,VALID,0,VALID,19.4688,VALID,127,VALID,0,
2013-07-11, 01:37:04,VALID,916.624,VALID,0,VALID,96.9165,VALID,0,VALID,19.4298,VALID,134,VALID,0,
2013-07-11, 01:38:04,VALID,916.61,VALID,0,VALID,96.9165,VALID,0,VALID,19.4298,VALID,136,VALID,0,
2013-07-11, 01:39:04,VALID,916.617,VALID,0,VALID,96.9012,VALID,0,VALID,19.4103,VALID,114,VALID,0,
2013-07-11, 01:40:04,VALID,916.605,VALID,0,VALID,96.8936,VALID,0,VALID,19.3908,VALID,121,VALID,0,
2013-07-11, 01:41:04,VALID,916.597,VALID,0,VALID,96.9165,VALID,0,VALID,19.3923,VALID,114,VALID,0,
2013-07-11, 01:42:04,VALID,916.582,VALID,0,VALID,96.9012,VALID,0,VALID,19.4118,VALID,119,VALID,0,
2013-07-11, 01:43:04,VALID,916.578,VALID,0,VALID,96.9089,VALID,0,VALID,19.3728,VALID,108,VALID,0,
2013-07-11, 01:44:04,VALID,916.538,VALID,0,VALID,96.9089,VALID,0,VALID,19.3728,VALID,108,VALID,0,
2013-07-11, 01:45:04,VALID,916.507,VALID,0,VALID,96.9089,VALID,0,VALID,19.3533,VALID,99,VALID,0,
2013-07-11, 01:46:04,VALID,916.451,VALID,0,VALID,96.9089,VALID,0,VALID,19.3128,VALID,100,VALID,0,
2013-07-11, 01:47:04,VALID,916.451,VALID,0,VALID,96.9089,VALID,0,VALID,19.3143,VALID,101,VALID,0,
2013-07-11, 01:48:04,VALID,916.412,VALID,0,VALID,96.886,VALID,0,VALID,19.2933,VALID,102,VALID,0,
2013-07-11, 01:49:04,VALID,916.45,VALID,0,VALID,96.9165,VALID,0,VALID,19.2543,VALID,102,VALID,0,
2013-07-11, 01:50:04,VALID,916.447,VALID,0,VALID,96.9012,VALID,0,VALID,19.2753,VALID,112,VALID,0,
2013-07-11, 01:51:04,VALID,916.466,VALID,0,VALID,96.9165,VALID,0,VALID,19.2348,VALID,113,VALID,0,
2013-07-11, 01:52:04,VALID,916.421,VALID,0,VALID,96.8936,VALID,0,VALID,19.1958,VALID,113,VALID,0,
2013-07-11, 01:53:04,VALID,916.418,VALID,0,VALID,96.9165,VALID,0,VALID,19.1763,VALID,112,VALID,0,
2013-07-11, 01:54:04,VALID,916.415,VALID,0,VALID,96.9165,VALID,0,VALID,19.1778,VALID,115,VALID,0,
2013-07-11, 01:55:04,VALID,916.392,VALID,0,VALID,96.9165,VALID,0,VALID,19.1373,VALID,123,VALID,0,
2013-07-11, 01:56:04,VALID,916.354,VALID,0,VALID,96.9089,VALID,0,VALID,19.1373,VALID,116,VALID,0,
2013-07-11, 01:57:04,VALID,916.323,VALID,0,VALID,96.9165,VALID,0,VALID,19.1373,VALID,164,VALID,0,
2013-07-11, 01:58:04,VALID,916.322,VALID,0,VALID,96.886,VALID,0,VALID,19.1193,VALID,110,VALID,0,
2013-07-11, 01:59:04,VALID,916.328,VALID,0,VALID,96.886,VALID,0,VALID,19.1193,VALID,120,VALID,0,
2013-07-11, 02:00:04,VALID,916.304,VALID,0,VALID,96.8936,VALID,0,VALID,19.0774,VALID,114,VALID,0,
2013-07-11, 02:01:04,VALID,916.28,VALID,0,VALID,96.886,VALID,0.107441,VALID,19.1178,VALID,158,VALID,0,
2013-07-11, 02:02:04,VALID,916.265,VALID,0,VALID,96.886,VALID,0,VALID,19.1178,VALID,156,VALID,0,
2013-07-11, 02:03:04,VALID,916.3,VALID,0,VALID,96.886,VALID,0,VALID,19.1178,VALID,144,VALID,0,
2013-07-11, 02:04:04,VALID,916.254,VALID,0,VALID,96.9012,VALID,0,VALID,19.1388,VALID,139,VALID,0,
2013-07-11, 02:05:04,VALID,916.251,VALID,0,VALID,96.8784,VALID,0,VALID,19.1178,VALID,108,VALID,0,
2013-07-11, 02:06:04,VALID,916.252,VALID,0,VALID,96.8784,VALID,0,VALID,19.1178,VALID,144,VALID,0,
2013-07-11, 02:07:04,VALID,916.213,VALID,0,VALID,96.8631,VALID,0,VALID,19.0983,VALID,144,VALID,0,
2013-07-11, 02:08:04,VALID,916.225,VALID,0,VALID,96.8631,VALID,0,VALID,19.0983,VALID,144,VALID,0,
2013-07-11, 02:09:04,VALID,916.214,VALID,0,VALID,96.8631,VALID,0,VALID,19.0983,VALID,144,VALID,0,
2013-07-11, 02:10:04,VALID,916.229,VALID,0,VALID,96.8707,VALID,0,VALID,19.1193,VALID,144,VALID,0,
2013-07-11, 02:11:04,VALID,916.221,VALID,0,VALID,96.8479,VALID,0,VALID,19.0983,VALID,144,VALID,0,
2013-07-11, 02:12:04,VALID,916.219,VALID,0,VALID,96.8631,VALID,0,VALID,19.0788,VALID,129,VALID,0,
2013-07-11, 02:13:04,VALID,916.224,VALID,0,VALID,96.825,VALID,0,VALID,19.0398,VALID,120,VALID,0,
2013-07-11, 02:14:04,VALID,916.212,VALID,0,VALID,96.8479,VALID,0,VALID,19.0203,VALID,122,VALID,0,
2013-07-11, 02:15:04,VALID,916.208,VALID,0,VALID,96.825,VALID,0,VALID,18.9814,VALID,106,VALID,0,
2013-07-11, 02:16:04,VALID,916.197,VALID,0,VALID,96.8326,VALID,0,VALID,19.0023,VALID,118,VALID,0,
2013-07-11, 02:17:04,VALID,916.172,VALID,0,VALID,96.8098,VALID,0,VALID,18.9619,VALID,120,VALID,0,
2013-07-11, 02:18:04,VALID,916.162,VALID,0,VALID,96.8174,VALID,0,VALID,18.9814,VALID,121,VALID,0,
2013-07-11, 02:19:04,VALID,916.17,VALID,0,VALID,96.8174,VALID,0,VALID,18.9619,VALID,133,VALID,0,
2013-07-11, 02:20:04,VALID,916.144,VALID,0,VALID,96.8098,VALID,0,VALID,18.9828,VALID,155,VALID,0,
2013-07-11, 02:21:04,VALID,916.12,VALID,0,VALID,96.7945,VALID,0,VALID,18.9619,VALID,140,VALID,0,
2013-07-11, 02:22:04,VALID,916.069,VALID,0,VALID,96.8098,VALID,0,VALID,19.0218,VALID,158,VALID,0,
2013-07-11, 02:23:04,VALID,916.112,VALID,0,VALID,96.8098,VALID,0,VALID,19.0218,VALID,158,VALID,0,
2013-07-11, 02:24:04,VALID,916.103,VALID,0,VALID,96.8174,VALID,0,VALID,19.0218,VALID,155,VALID,0,
2013-07-11, 02:25:04,VALID,916.107,VALID,0,VALID,96.8021,VALID,0,VALID,19.0008,VALID,147,VALID,0,
2013-07-11, 02:26:04,VALID,916.063,VALID,0,VALID,96.8098,VALID,0,VALID,19.0413,VALID,146,VALID,0,
2013-07-11, 02:27:04,VALID,916.106,VALID,0,VALID,96.8326,VALID,0,VALID,19.0413,VALID,155,VALID,0,
2013-07-11, 02:28:04,VALID,916.058,VALID,0,VALID,96.7945,VALID,0,VALID,19.0203,VALID,157,VALID,0,
2013-07-11, 02:29:04,VALID,916.042,VALID,0,VALID,96.8098,VALID,0,VALID,19.0218,VALID,190,VALID,0,
2013-07-11, 02:30:04,VALID,916.054,VALID,0,VALID,96.8174,VALID,0,VALID,19.0203,VALID,190,VALID,0,
2013-07-11, 02:31:04,VALID,916.043,VALID,0,VALID,96.8174,VALID,0,VALID,19.0218,VALID,146,VALID,0,
2013-07-11, 02:32:04,VALID,916.004,VALID,0,VALID,96.8021,VALID,0,VALID,18.9828,VALID,135,VALID,0,
2013-07-11, 02:33:04,VALID,916.005,VALID,0,VALID,96.8098,VALID,0,VALID,18.9619,VALID,125,VALID,0,
2013-07-11, 02:34:04,VALID,915.982,VALID,0,VALID,96.8021,VALID,0,VALID,18.9633,VALID,140,VALID,0,
2013-07-11, 02:35:04,VALID,915.983,VALID,0,VALID,96.8098,VALID,0,VALID,18.9633,VALID,138,VALID,0,
2013-07-11, 02:36:04,VALID,915.953,VALID,0,VALID,96.8098,VALID,0,VALID,18.9633,VALID,129,VALID,0,
2013-07-11, 02:37:04,VALID,915.962,VALID,0,VALID,96.8021,VALID,0,VALID,18.9243,VALID,128,VALID,0,
2013-07-11, 02:38:04,VALID,915.958,VALID,0,VALID,96.825,VALID,0,VALID,18.9243,VALID,126,VALID,0,
2013-07-11, 02:39:04,VALID,915.938,VALID,0,VALID,96.8021,VALID,0,VALID,18.9243,VALID,125,VALID,0,
2013-07-11, 02:40:04,VALID,915.947,VALID,0,VALID,96.8174,VALID,0,VALID,18.9438,VALID,127,VALID,0,
2013-07-11, 02:41:04,VALID,915.935,VALID,0,VALID,96.8098,VALID,0,VALID,18.9243,VALID,110,VALID,0,
2013-07-11, 02:42:04,VALID,915.866,VALID,0,VALID,96.7945,VALID,0,VALID,18.9243,VALID,137,VALID,0,
2013-07-11, 02:43:04,VALID,915.89,VALID,0,VALID,96.7945,VALID,0,VALID,18.9438,VALID,137,VALID,0,
2013-07-11, 02:44:04,VALID,915.874,VALID,0,VALID,96.7869,VALID,0,VALID,18.9633,VALID,168,VALID,0,
2013-07-11, 02:45:04,VALID,915.85,VALID,0,VALID,96.8021,VALID,0,VALID,18.9438,VALID,169,VALID,0,
2013-07-11, 02:46:04,VALID,915.839,VALID,0,VALID,96.7793,VALID,0,VALID,18.9438,VALID,149,VALID,0,
2013-07-11, 02:47:04,VALID,915.847,VALID,0,VALID,96.764,VALID,0,VALID,18.9438,VALID,138,VALID,0,
2013-07-11, 02:48:04,VALID,915.851,VALID,0,VALID,96.764,VALID,0,VALID,18.9034,VALID,137,VALID,0,
2013-07-11, 02:49:04,VALID,915.831,VALID,0,VALID,96.7793,VALID,0,VALID,18.9048,VALID,115,VALID,0,
2013-07-11, 02:50:04,VALID,915.836,VALID,0,VALID,96.7411,VALID,0,VALID,18.8853,VALID,121,VALID,0,
2013-07-11, 02:51:04,VALID,915.845,VALID,0,VALID,96.7488,VALID,0,VALID,18.8658,VALID,129,VALID,0,
2013-07-11, 02:52:04,VALID,915.826,VALID,0,VALID,96.7564,VALID,0,VALID,18.8463,VALID,134,VALID,0,
2013-07-11, 02:53:04,VALID,915.851,VALID,0,VALID,96.764,VALID,0,VALID,18.8268,VALID,133,VALID,0,
2013-07-11, 02:54:04,VALID,915.837,VALID,0,VALID,96.7335,VALID,0,VALID,18.8073,VALID,126,VALID,0,
2013-07-11, 02:55:04,VALID,915.836,VALID,0,VALID,96.7335,VALID,0,VALID,18.7878,VALID,136,VALID,0,
2013-07-11, 02:56:04,VALID,915.841,VALID,0,VALID,96.7488,VALID,0,VALID,18.7878,VALID,132,VALID,0,
2013-07-11, 02:57:04,VALID,915.849,VALID,0,VALID,96.764,VALID,0,VALID,18.7878,VALID,145,VALID,0,
2013-07-11, 02:58:04,VALID,915.849,VALID,0,VALID,96.7716,VALID,0,VALID,18.8073,VALID,149,VALID,0,
2013-07-11, 02:59:04,VALID,915.853,VALID,0,VALID,96.764,VALID,0,VALID,18.7864,VALID,177,VALID,0,
2013-07-11, 03:00:04,VALID,915.83,VALID,0,VALID,96.7716,VALID,0,VALID,18.8073,VALID,120,VALID,0,
2013-07-11, 03:01:04,VALID,915.827,VALID,0,VALID,96.7716,VALID,0,VALID,18.7864,VALID,165,VALID,0,
2013-07-11, 03:02:04,VALID,915.835,VALID,0,VALID,96.764,VALID,0,VALID,18.7864,VALID,176,VALID,0,
2013-07-11, 03:03:04,VALID,915.865,VALID,0,VALID,96.7488,VALID,0,VALID,18.7878,VALID,176,VALID,0,
2013-07-11, 03:04:04,VALID,915.854,VALID,0,VALID,96.7564,VALID,0,VALID,18.7878,VALID,179,VALID,0,
2013-07-11, 03:05:04,VALID,915.886,VALID,0,VALID,96.7564,VALID,0,VALID,18.7683,VALID,171,VALID,0,
2013-07-11, 03:06:04,VALID,915.865,VALID,0,VALID,96.764,VALID,0,VALID,18.7488,VALID,181,VALID,0,
2013-07-11, 03:07:04,VALID,915.889,VALID,0,VALID,96.7564,VALID,0,VALID,18.7488,VALID,160,VALID,0,
2013-07-11, 03:08:04,VALID,915.892,VALID,0,VALID,96.7335,VALID,0,VALID,18.7503,VALID,165,VALID,0,
2013-07-11, 03:09:04,VALID,915.911,VALID,0,VALID,96.7335,VALID,0,VALID,18.7279,VALID,155,VALID,0,
2013-07-11, 03:10:04,VALID,915.906,VALID,0,VALID,96.6802,VALID,0,VALID,18.7669,VALID,147,VALID,0,
2013-07-11, 03:11:04,VALID,915.89,VALID,0,VALID,96.6649,VALID,0.107441,VALID,18.7669,VALID,170,VALID,0,
2013-07-11, 03:12:04,VALID,915.879,VALID,0,VALID,96.6649,VALID,0,VALID,18.7683,VALID,152,VALID,0,
2013-07-11, 03:13:04,VALID,915.888,VALID,0,VALID,96.642,VALID,0,VALID,18.7279,VALID,139,VALID,0,
2013-07-11, 03:14:04,VALID,915.87,VALID,0,VALID,96.5887,VALID,0.107441,VALID,18.7279,VALID,125,VALID,0,
2013-07-11, 03:15:04,VALID,915.847,VALID,0,VALID,96.5658,VALID,0,VALID,18.7279,VALID,123,VALID,0,
2013-07-11, 03:16:04,VALID,915.848,VALID,0,VALID,96.5201,VALID,0,VALID,18.7084,VALID,118,VALID,0,
2013-07-11, 03:17:04,VALID,915.861,VALID,0,VALID,96.4819,VALID,0,VALID,18.7098,VALID,125,VALID,0,
2013-07-11, 03:18:04,VALID,915.879,VALID,0,VALID,96.4133,VALID,0,VALID,18.6694,VALID,125,VALID,0,
2013-07-11, 03:19:04,VALID,915.84,VALID,0,VALID,96.3676,VALID,0,VALID,18.6694,VALID,115,VALID,0,
2013-07-11, 03:20:04,VALID,915.832,VALID,0,VALID,96.3524,VALID,0,VALID,18.6694,VALID,132,VALID,0,
2013-07-11, 03:21:04,VALID,915.812,VALID,0,VALID,96.2761,VALID,0,VALID,18.6889,VALID,123,VALID,0,
2013-07-11, 03:22:04,VALID,915.808,VALID,0,VALID,96.177,VALID,0,VALID,18.6694,VALID,138,VALID,0,
2013-07-11, 03:23:04,VALID,915.793,VALID,0,VALID,96.1084,VALID,0.107441,VALID,18.7084,VALID,120,VALID,0,
2013-07-11, 03:24:04,VALID,915.805,VALID,0,VALID,96.0245,VALID,0,VALID,18.7279,VALID,138,VALID,0,
2013-07-11, 03:25:04,VALID,915.766,VALID,0,VALID,95.9254,VALID,0,VALID,18.7488,VALID,154,VALID,0,
2013-07-11, 03:26:04,VALID,915.773,VALID,0,VALID,95.8492,VALID,0,VALID,18.7098,VALID,134,VALID,0,
2013-07-11, 03:27:04,VALID,915.745,VALID,0,VALID,95.7501,VALID,0,VALID,18.7098,VALID,158,VALID,0,
2013-07-11, 03:28:04,VALID,915.768,VALID,0,VALID,95.7654,VALID,0,VALID,18.7308,VALID,132,VALID,0,
2013-07-11, 03:29:04,VALID,915.706,VALID,0,VALID,95.7501,VALID,0,VALID,18.6903,VALID,148,VALID,0,
2013-07-11, 03:30:04,VALID,915.712,VALID,0,VALID,95.7654,VALID,0,VALID,18.6903,VALID,150,VALID,0,
2013-07-11, 03:31:04,VALID,915.72,VALID,0,VALID,95.7425,VALID,0,VALID,18.6708,VALID,150,VALID,0,
2013-07-11, 03:32:04,VALID,915.681,VALID,0,VALID,95.7501,VALID,0,VALID,18.6708,VALID,150,VALID,0,
2013-07-11, 03:33:04,VALID,915.69,VALID,0,VALID,95.7349,VALID,0,VALID,18.6319,VALID,150,VALID,0,
2013-07-11, 03:34:04,VALID,915.7,VALID,0,VALID,95.7349,VALID,0,VALID,18.6319,VALID,150,VALID,0,
2013-07-11, 03:35:04,VALID,915.722,VALID,0,VALID,95.7272,VALID,0,VALID,18.5943,VALID,150,VALID,0,
2013-07-11, 03:36:04,VALID,915.7,VALID,0,VALID,95.7806,VALID,0,VALID,18.5539,VALID,139,VALID,0,
2013-07-11, 03:37:04,VALID,915.694,VALID,0,VALID,95.8111,VALID,0,VALID,18.5344,VALID,144,VALID,0,
2013-07-11, 03:38:04,VALID,915.685,VALID,0,VALID,95.8416,VALID,0,VALID,18.5358,VALID,144,VALID,0,
2013-07-11, 03:39:04,VALID,915.674,VALID,0,VALID,95.8416,VALID,0,VALID,18.5149,VALID,154,VALID,0,
2013-07-11, 03:40:04,VALID,915.678,VALID,0,VALID,95.895,VALID,0.107441,VALID,18.533,VALID,155,VALID,0,
2013-07-11, 03:41:04,VALID,915.669,VALID,0,VALID,95.8873,VALID,0,VALID,18.533,VALID,149,VALID,0,
2013-07-11, 03:42:04,VALID,915.662,VALID,0,VALID,95.834,VALID,0,VALID,18.5539,VALID,130,VALID,0,
2013-07-11, 03:43:04,VALID,915.634,VALID,0,VALID,95.8035,VALID,0,VALID,18.533,VALID,118,VALID,0,
2013-07-11, 03:44:04,VALID,915.641,VALID,0,VALID,95.7272,VALID,0,VALID,18.5525,VALID,132,VALID,0,
2013-07-11, 03:45:04,VALID,915.617,VALID,0,VALID,95.712,VALID,0,VALID,18.5539,VALID,135,VALID,0,
2013-07-11, 03:46:04,VALID,915.623,VALID,0,VALID,95.6281,VALID,0,VALID,18.5344,VALID,133,VALID,0,
2013-07-11, 03:47:04,VALID,915.606,VALID,0,VALID,95.5748,VALID,0,VALID,18.494,VALID,138,VALID,0,
2013-07-11, 03:48:04,VALID,915.596,VALID,0,VALID,95.4604,VALID,0,VALID,18.4745,VALID,140,VALID,0,
2013-07-11, 03:49:04,VALID,915.608,VALID,0,VALID,95.4299,VALID,0,VALID,18.455,VALID,130,VALID,0,
2013-07-11, 03:50:04,VALID,915.596,VALID,0,VALID,95.4147,VALID,0,VALID,18.4369,VALID,126,VALID,0,
2013-07-11, 03:51:04,VALID,915.597,VALID,0,VALID,95.3918,VALID,0.107441,VALID,18.3965,VALID,123,VALID,0,
2013-07-11, 03:52:04,VALID,915.619,VALID,0,VALID,95.3613,VALID,0,VALID,18.3575,VALID,116,VALID,0,
2013-07-11, 03:53:04,VALID,915.586,VALID,0,VALID,95.3537,VALID,0,VALID,18.3575,VALID,112,VALID,0,
2013-07-11, 03:54:04,VALID,915.586,VALID,0,VALID,95.3766,VALID,0,VALID,18.3589,VALID,97,VALID,0,
2013-07-11, 03:55:04,VALID,915.571,VALID,0,VALID,95.3308,VALID,0,VALID,18.3185,VALID,64,VALID,0,
2013-07-11, 03:56:04,VALID,915.566,VALID,0,VALID,95.2622,VALID,0.107441,VALID,18.2601,VALID,64,VALID,0,
2013-07-11, 03:57:04,VALID,915.587,VALID,0,VALID,95.3613,VALID,0.107441,VALID,18.2211,VALID,65,VALID,0,
2013-07-11, 03:58:04,VALID,915.605,VALID,0,VALID,95.5214,VALID,0.107441,VALID,18.2406,VALID,93,VALID,0,